Regional Weather Roundup
Issued by NWS

Home | Current Version | Previous Version | Graphics & Text | Print | Product List | Glossary On
Versions: 1 2 3 4 5 6 7 8 9 10 11 12 13 14 15 16 17 18 19 20 21 22 23 24 25 26 27 28 29 30 31 32 33 34 35 36 37 38 39 40 41 42 43 44 45 46 47 48 49 50
000
ASUS43 KDTX 212201
RWRMI
MICHIGAN HOURLY REGIONAL WEATHER ROUNDUP
NATIONAL WEATHER SERVICE DETROIT/PONTIAC MI
600 PM EDT SAT OCT 21 2017

NOTE: "FAIR" INDICATES FEW OR NO CLOUDS BELOW 12,000 FEET WITH NO
SIGNIFICANT WEATHER AND/OR OBSTRUCTION TO VISIBILITY.

MIZ047>049-052>055-059>063-066>070-074>076-081>083-212300-
SOUTHEAST LOWER MICHIGAN

CITY           SKY/WX    TMP DP  RH WIND       PRES   REMARKS
ADRIAN         PTCLDY    72  50  45 S9        30.16S
ALMA           PTCLDY    73  36  26 S10       30.09S
ANN ARBOR      MOCLDY    72  54  53 SE6       30.15S
BAD AXE        CLOUDY    69  52  54 S13       30.13S
CARO           PTCLDY    72  48  43 S9        30.12S
DETROIT CITY   CLOUDY    68  54  60 S6        30.17S
DETROIT        CLOUDY    68  54  60 S7        30.17S
FLINT          CLOUDY    70  51  51 S7        30.13S
GROSSE ILE     CLOUDY    67  54  61 SE5       30.16S
HILLSDALE      CLEAR     70  45  40 S6        30.15S
HOWELL         PTCLDY    71  49  45 S9        30.14S

CITY           SKY/WX    TMP DP  RH WIND       PRES   REMARKS
JACKSON        PTCLDY    70  47  43 S13       30.14S
LAMBERTVILLE   CLOUDY    74  54  48 CALM      30.16R
LANSING        CLOUDY    73  44  35 S10       30.11S
LAPEER         FAIR      68  53  58 S6        30.15S
MASON          PTCLDY    73  46  39 S9        30.13S
MONROE         CLOUDY    69  56  63 CALM      30.16R
MT. CLEMENS    CLOUDY    65  56  73 S10       30.15S
PONTIAC        MOCLDY    68  55  63 SE8       30.15R
PORT HOPE        N/A     67  55  65 SE5       30.12R
PORT HURON     CLOUDY    70  54  56 S8        30.17R
TRI CITIES     CLOUDY    74  46  36 S12       30.10S
MIDLAND        FAIR      75  42  31 S6        30.07F
TROY           MOCLDY    70  53  54 S6        30.18S
SAGINAW HB     MOCLDY    72  46  40 S8G16     30.10S
$$
MIZ043>046-050>051-056>058-064>065-071>073-077>080-212300-
SOUTHWEST LOWER MICHIGAN

CITY           SKY/WX    TMP DP  RH WIND       PRES   REMARKS
BATTLE CREEK   CLEAR     73  43  33 S12       30.11F
BENTON HARBOR  PTCLDY    73  54  51 S9        30.04F
BIG RAPIDS     MOCLDY    71  40  32 SE9       30.05S
COLDWATER      CLOUDY    71  38  30 S8        30.13S
FREMONT        FAIR      72  49  44 S8        30.04R
HOLLAND        CLEAR     71  53  52 S16       30.05F
GRAND RAPIDS   CLOUDY    72  46  39 S15       30.07F
IONIA          FAIR      72  41  32 S7        30.09R
KALAMAZOO      CLEAR     70  43  37 S10       30.11R
LUDINGTON      CLEAR     70  54  56 S13G22    30.00S
MARSHALL       CLOUDY    71  42  34 S6        30.12S
MOUNT PLEASANT PTCLDY    74  39  28 S7        30.07S
MUSKEGON       CLOUDY    73  53  49 S14G24    30.03S
SOUTH HAVEN    PTCLDY    73  53  48 S7        30.04F
$$
MIZ016>042-212300-
NORTHERN LOWER MICHIGAN

CITY           SKY/WX    TMP DP  RH WIND       PRES   REMARKS
ALPENA         PTCLDY    68  51  54 S9        30.07R
BEAVER ISLAND  CLEAR     69  46  42 S3        29.98S
BELLAIRE       MOCLDY    73  37  26 S10G17    30.00R
CADILLAC       MOCLDY    71  40  32 S10G20    30.05R
CHARLEVOIX     PTCLDY    72  42  34 S7        30.02R
FRANKFORT      CLEAR     74  53  47 S13G20    29.98S
GAYLORD        CLOUDY    70  39  32 S13       30.04S
GRAYLING       CLOUDY    69  39  33 S12G17    30.06R
HARBOR SPRINGS PTCLDY    73  38  28 CALM      29.99S
HOUGHTON LAKE  MOCLDY    68  41  37 S8        30.07S
MANISTEE       CLEAR     72  55  55 S9G18     29.99R
OSCODA         MOCLDY    70  47  44 S6        30.09S
PELLSTON       CLOUDY    74  40  29 SE5       30.00S
ROGERS CITY    CLOUDY    70  43  37 S12       30.04F
TRAVERSE CITY  PTCLDY    75  45  34 VRB7      29.99R
$$
MIZ007>008-015-212300-
EASTERN UPPER MICHIGAN

CITY           SKY/WX    TMP DP  RH WIND       PRES   REMARKS
KINROSS        CLOUDY    66  49  54 SE14      30.01S
MACKINAC ISLAN CLOUDY    67  47  48 SE7       30.00S
NEWBERRY       CLEAR     65  46  50 S13G18    29.96S
S. S. MARIE    MOCLDY    63  53  70 SE12G17   30.00S
MUNISING         N/A     66  54  65 S18G29    29.87S
$$
MIZ004>006-011>014-085-212300-
CENTRAL UPPER MICHIGAN

CITY           SKY/WX    TMP DP  RH WIND       PRES   REMARKS
MANISTIQUE     CLEAR     60  55  81 S10G16    29.96R
ESCANABA       CLEAR     62  55  77 S12       29.92S
MENOMINEE      CLEAR     64  55  72 S14       29.91
SAWYER-GWINN   CLEAR     64  54  68 S20G25    29.86F
$$
MIZ001>003-009>011-084-212300-
WESTERN UPPER MICHIGAN

CITY           SKY/WX    TMP DP  RH WIND       PRES   REMARKS
IRON MOUNTAIN  CLEAR     70  52  52 S13       29.85R
HOUGHTON       CLOUDY    66  56  70 E7        29.76F
COPPER HARBOR    N/A     61  54  77 VRB7      29.78S
$$

ABBREVIATIONS USED IN REMARKS
   TC - TEMPERATURE IN CELSIUS
  WCI - WIND CHILL INDEX
   HX - HEAT INDEX
  VSB - VISIBILITY





USA.gov is the U.S. government's official web portal to all federal, state and local government web resources and services.